Location: Wildlife_Club
(35.6000°N, 81.4330°W)
Time: 05:21:17
(UTC-04:00)

A-11 Canister half - Pass Details

Date: 30 June 2019
Orbit: 1514 x 1685 km, 47.2° (Epoch: 16 July)

Event Time Altitude Azimuth Distance (km) Brightness Sun altitude
Rises 12:24:19 0° 281° (W) 4,912 11.5 71.2°
Reaches altitude 10° 12:27:48 10° 289° (WNW) 3,907 11.1 71.7°
Maximum altitude 12:37:08 42° 357° (N) 2,183 10.3 73.2°
Drops below altitude 10° 12:46:10 10° 67° (ENE) 3,784 11.3 74.4°
Sets 12:49:29 0° 74° (ENE) 4,744 11.7 74.8°
